Chignik, AK

9:56 AM AKDT on October 23, 2017 (GMT -0800)
Chignik

Weather History for PAJC - September, 2012

Change the Weather History Date:

Sunday, September 16, 2012

  Actual Average Record
Temperature  
Mean Temperature 50 °F -  
Max Temperature 53 °F 51 °F 59 °F (2014)
Min Temperature 44 °F 43 °F 39 °F (1996)
Degree Days  
Heating Degree Days 16    
Moisture  
Dew Point 35 °F    
Average Humidity 56    
Maximum Humidity 66    
Minimum Humidity 47    
Precipitation  
Precipitation 0.00 in - - ()
Sea Level Pressure  
Sea Level Pressure 29.23 in    
Wind  
Wind Speed - (North)    
Max Wind Speed -    
Max Gust Speed -    
Visibility 10 miles    
Events      
Averages and records for this station are not official NWS values.
T = Trace of Precipitation, MM = Missing Value Source: NWS Daily Summary

Daily Weather History Graph

Daily Weather History Graph

Search for Another Location

Airport or City:

Trip Planner

Search our weather history database for the weather conditions in past years. The results will help you decide how hot, cold, wet, or windy it might be!

Date:

Astronomy

Sep. 16, 2012 Rise Set
Actual Time 8:08 AM AKDT 8:46 PM AKDT
Civil Twilight 7:30 AM AKDT 9:24 PM AKDT
Nautical Twilight 6:44 AM AKDT 10:09 PM AKDT
Astronomical Twilight 5:55 AM AKDT 10:58 PM AKDT
Moon 9:22 AM AKDT (9/16) 8:31 PM AKDT (9/16)
Length of Visible Light 13h 53m
Length of Day
12h 38m
New Moon, 1% of the Moon is Illuminated
Sep 16
New Moon
Sep 22
First Quarter
Sep 29
Full
Oct 7
Last Quarter
Oct 15
New

Hourly Weather History & Observations

Time (AKDT) Temp. Dew Point Humidity Pressure Visibility Wind Dir Wind Speed Gust Speed Precip Events Conditions
12:16 AM 51.8 °F 35.6 °F 54% 29.07 in 10.0 mi North - - N/A   Overcast
12:36 AM 51.8 °F 35.6 °F 54% 29.07 in 10.0 mi North - - N/A   Overcast
12:56 AM 50.0 °F 35.6 °F 58% 29.08 in 10.0 mi North - - N/A   Overcast
1:16 AM 50.0 °F 33.8 °F 54% 29.09 in 10.0 mi North - - N/A   Overcast
1:36 AM 51.8 °F 33.8 °F 50% 29.09 in 10.0 mi North - - N/A   Overcast
1:56 AM 50.0 °F 35.6 °F 58% 29.09 in 10.0 mi North - - N/A   Overcast
2:16 AM 48.2 °F 35.6 °F 62% 29.09 in 10.0 mi North - - N/A   Overcast
2:36 AM 50.0 °F 33.8 °F 54% 29.08 in 10.0 mi North - - N/A   Overcast
2:56 AM 50.0 °F 33.8 °F 54% 29.06 in 10.0 mi North - - N/A   Overcast
3:16 AM 48.2 °F 35.6 °F 62% 29.07 in 10.0 mi North - - N/A   Overcast
3:36 AM 48.2 °F 33.8 °F 58% 29.06 in 10.0 mi North - - N/A   Overcast
3:56 AM 50.0 °F 33.8 °F 54% 29.05 in 10.0 mi North - - N/A   Overcast
4:36 AM 50.0 °F 33.8 °F 54% 29.03 in 10.0 mi North - - N/A   Overcast
4:56 AM 48.2 °F 37.4 °F 66% 29.00 in 7.0 mi North - - N/A   Overcast
5:16 AM 48.2 °F 35.6 °F 62% 28.97 in 9.0 mi North - - N/A   Overcast
5:36 AM 48.2 °F 35.6 °F 62% 28.94 in 10.0 mi North - - N/A   Overcast
5:56 AM 48.2 °F 37.4 °F 66% 28.92 in 7.0 mi North - - N/A   Overcast
6:16 AM 48.2 °F 37.4 °F 66% 28.90 in 6.0 mi North - - N/A   Overcast
6:36 AM 48.2 °F 35.6 °F 62% 28.90 in 10.0 mi North - - N/A   Overcast
6:56 AM 48.2 °F 35.6 °F 62% 28.90 in 10.0 mi North - - N/A   Overcast
7:16 AM 48.2 °F 37.4 °F 66% 28.89 in 7.0 mi North - - N/A   Overcast
7:36 AM 48.2 °F 37.4 °F 66% 28.90 in 10.0 mi North - - N/A   Overcast
7:56 AM 48.2 °F 37.4 °F 66% 28.90 in 10.0 mi North - - N/A   Overcast
8:16 AM 48.2 °F 37.4 °F 66% 28.91 in 8.0 mi North - - N/A   Overcast
8:36 AM 48.2 °F 37.4 °F 66% 28.92 in 9.0 mi North - - N/A   Overcast
9:16 AM 48.2 °F 37.4 °F 66% 28.92 in 10.0 mi North - - N/A   Overcast
9:36 AM 48.2 °F 37.4 °F 66% 28.93 in 10.0 mi North - - N/A   Overcast
9:56 AM 50.0 °F 37.4 °F 62% 28.94 in 10.0 mi North - - N/A   Overcast
10:16 AM 50.0 °F 37.4 °F 62% 28.97 in 10.0 mi North - - N/A   Mostly Cloudy
10:36 AM 51.8 °F 37.4 °F 58% 28.99 in 10.0 mi North - - N/A   Overcast
10:56 AM 51.8 °F 35.6 °F 54% 29.02 in 10.0 mi North - - N/A   Mostly Cloudy
11:16 AM 51.8 °F 35.6 °F 54% 29.05 in 10.0 mi North - - N/A   Mostly Cloudy
11:36 AM 51.8 °F 35.6 °F 54% 29.07 in 10.0 mi North - - N/A   Overcast
11:56 AM 51.8 °F 35.6 °F 54% 29.09 in 10.0 mi North - - N/A   Overcast
12:16 PM 51.8 °F 35.6 °F 54% 29.11 in 10.0 mi North - - N/A   Overcast
12:36 PM 53.6 °F 35.6 °F 51% 29.12 in 10.0 mi North - - N/A   Overcast
12:56 PM 53.6 °F 35.6 °F 51% 29.13 in 10.0 mi North - - N/A   Mostly Cloudy
1:16 PM 53.6 °F 35.6 °F 51% 29.16 in 10.0 mi North - - N/A   Scattered Clouds
1:36 PM 53.6 °F 35.6 °F 51% 29.19 in 10.0 mi North - - N/A   Mostly Cloudy
1:56 PM 53.6 °F 35.6 °F 51% 29.21 in 10.0 mi North - - N/A   Mostly Cloudy
2:16 PM 53.6 °F 35.6 °F 51% 29.25 in 10.0 mi North - - N/A   Mostly Cloudy
2:36 PM 53.6 °F 35.6 °F 51% 29.28 in 10.0 mi North - - N/A   Overcast
2:56 PM 53.6 °F 33.8 °F 47% 29.29 in 10.0 mi North - - N/A   Overcast
3:16 PM 53.6 °F 35.6 °F 51% 29.31 in 10.0 mi North - - N/A   Overcast
3:36 PM 51.8 °F 35.6 °F 54% 29.32 in 10.0 mi North - - N/A   Mostly Cloudy
3:56 PM 51.8 °F 35.6 °F 54% 29.34 in 10.0 mi North - - N/A   Mostly Cloudy
4:16 PM 53.6 °F 35.6 °F 51% 29.36 in 10.0 mi North - - N/A   Mostly Cloudy
4:36 PM 51.8 °F 35.6 °F 54% 29.40 in 10.0 mi North - - N/A   Overcast
4:56 PM 51.8 °F 35.6 °F 54% 29.41 in 10.0 mi North - - N/A   Mostly Cloudy
5:16 PM 51.8 °F 35.6 °F 54% 29.43 in 10.0 mi North - - N/A   Partly Cloudy
5:36 PM 51.8 °F 35.6 °F 54% 29.45 in 10.0 mi North - - N/A   Clear
5:56 PM 51.8 °F 33.8 °F 50% 29.47 in 10.0 mi North - - N/A   Scattered Clouds
6:16 PM 51.8 °F 33.8 °F 50% 29.49 in 10.0 mi North - - N/A   Mostly Cloudy
6:36 PM 51.8 °F 33.8 °F 50% 29.51 in 10.0 mi North - - N/A   Partly Cloudy
6:56 PM 51.8 °F 33.8 °F 50% 29.52 in 10.0 mi North - - N/A   Clear
7:16 PM 51.8 °F 35.6 °F 54% 29.54 in 10.0 mi North - - N/A   Clear
7:36 PM 50.0 °F 32.0 °F 50% 29.55 in 10.0 mi North - - N/A   Scattered Clouds
7:56 PM 50.0 °F 33.8 °F 54% 29.55 in 10.0 mi North - - N/A   Partly Cloudy
8:16 PM 50.0 °F 32.0 °F 50% 29.57 in 10.0 mi North - - N/A   Clear
8:36 PM 48.2 °F 30.2 °F 50% 29.60 in 10.0 mi North - - N/A   Clear
8:56 PM 48.2 °F 32.0 °F 54% 29.60 in 10.0 mi North - - N/A   Clear
9:16 PM 46.4 °F 30.2 °F 53% 29.61 in 10.0 mi North - - N/A   Clear
9:36 PM 48.2 °F 32.0 °F 54% 29.63 in 10.0 mi North - - N/A   Partly Cloudy
9:56 PM 46.4 °F 33.8 °F 62% 29.64 in 10.0 mi North - - N/A   Clear
10:16 PM 46.4 °F 32.0 °F 57% 29.65 in 10.0 mi North - - N/A   Clear
10:36 PM 46.4 °F 33.8 °F 62% 29.67 in 10.0 mi North - - N/A   Clear
10:56 PM 46.4 °F 33.8 °F 62% 29.67 in 10.0 mi North - - N/A   Clear
11:16 PM 46.4 °F 30.2 °F 53% 29.68 in 10.0 mi North - - N/A   Partly Cloudy
11:36 PM 46.4 °F 30.2 °F 53% 29.69 in 10.0 mi North - - N/A   Clear
11:56 PM 44.6 °F 30.2 °F 57% 29.70 in 10.0 mi North - - N/A   Clear